#datetime,building,power
2022-10-20T00:00:00,axn,31.46
2022-10-20T00:01:00,axn,30.89
2022-10-20T00:02:00,axn,29.87
2022-10-20T00:03:00,axn,30.01
2022-10-20T00:04:00,axn,30.07
2022-10-20T00:05:00,axn,30.12
2022-10-20T00:06:00,axn,29.91
2022-10-20T00:07:00,axn,29.93
2022-10-20T00:08:00,axn,30.01
2022-10-20T00:09:00,axn,29.67
2022-10-20T00:10:00,axn,29.50
2022-10-20T00:11:00,axn,29.62
2022-10-20T00:12:00,axn,29.63
2022-10-20T00:13:00,axn,29.85
2022-10-20T00:14:00,axn,29.85
2022-10-20T00:15:00,axn,29.73
2022-10-20T00:16:00,axn,29.76
2022-10-20T00:17:00,axn,29.73
2022-10-20T00:18:00,axn,29.72
2022-10-20T00:19:00,axn,29.86
2022-10-20T00:20:00,axn,29.69
2022-10-20T00:21:00,axn,29.58
2022-10-20T00:22:00,axn,29.56
2022-10-20T00:23:00,axn,29.63
2022-10-20T00:24:00,axn,28.98
2022-10-20T00:25:00,axn,28.92
2022-10-20T00:26:00,axn,28.87
2022-10-20T00:27:00,axn,31.75
2022-10-20T00:28:00,axn,28.85
2022-10-20T00:29:00,axn,28.98
2022-10-20T00:30:00,axn,29.21
2022-10-20T00:31:00,axn,29.12
2022-10-20T00:32:00,axn,29.28
2022-10-20T00:33:00,axn,29.22
2022-10-20T00:34:00,axn,29.04
2022-10-20T00:35:00,axn,29.19
2022-10-20T00:36:00,axn,29.16
2022-10-20T00:37:00,axn,29.11
2022-10-20T00:38:00,axn,29.37
2022-10-20T00:39:00,axn,29.38
2022-10-20T00:40:00,axn,29.11
2022-10-20T00:41:00,axn,29.05
2022-10-20T00:42:00,axn,29.39
2022-10-20T00:43:00,axn,29.40
2022-10-20T00:44:00,axn,29.01
2022-10-20T00:45:00,axn,29.29
2022-10-20T00:46:00,axn,29.28
2022-10-20T00:47:00,axn,29.30
2022-10-20T00:48:00,axn,29.51
2022-10-20T00:49:00,axn,29.65
2022-10-20T00:50:00,axn,29.92
2022-10-20T00:51:00,axn,39.95
2022-10-20T00:52:00,axn,39.90
2022-10-20T00:53:00,axn,40.13
2022-10-20T00:54:00,axn,39.82
2022-10-20T00:55:00,axn,36.51
2022-10-20T00:56:00,axn,29.82
2022-10-20T00:57:00,axn,29.38
2022-10-20T00:58:00,axn,29.36
2022-10-20T00:59:00,axn,44.39
2022-10-20T01:00:00,axn,44.57
2022-10-20T01:01:00,axn,44.04
2022-10-20T01:02:00,axn,44.07
2022-10-20T01:03:00,axn,43.81
2022-10-20T01:04:00,axn,43.16
2022-10-20T01:05:00,axn,29.07
2022-10-20T01:06:00,axn,29.45
2022-10-20T01:07:00,axn,29.56
2022-10-20T01:08:00,axn,29.54
2022-10-20T01:09:00,axn,29.26
2022-10-20T01:10:00,axn,29.39
2022-10-20T01:11:00,axn,29.30
2022-10-20T01:12:00,axn,29.45
2022-10-20T01:13:00,axn,29.48
2022-10-20T01:14:00,axn,32.34
2022-10-20T01:15:00,axn,32.75
2022-10-20T01:16:00,axn,32.56
2022-10-20T01:17:00,axn,29.48
2022-10-20T01:18:00,axn,29.56
2022-10-20T01:19:00,axn,29.20
2022-10-20T01:20:00,axn,28.94
2022-10-20T01:21:00,axn,28.85
2022-10-20T01:22:00,axn,29.00
2022-10-20T01:23:00,axn,28.74
2022-10-20T01:24:00,axn,28.74
2022-10-20T01:25:00,axn,28.83
2022-10-20T01:26:00,axn,28.79
2022-10-20T01:27:00,axn,28.98
2022-10-20T01:28:00,axn,28.48
2022-10-20T01:29:00,axn,28.32
2022-10-20T01:30:00,axn,28.49
2022-10-20T01:31:00,axn,28.34
2022-10-20T01:32:00,axn,28.38
2022-10-20T01:33:00,axn,28.24
2022-10-20T01:34:00,axn,32.65
2022-10-20T01:35:00,axn,32.57
2022-10-20T01:36:00,axn,32.56
2022-10-20T01:37:00,axn,27.28
2022-10-20T01:38:00,axn,27.51
2022-10-20T01:39:00,axn,27.87
2022-10-20T01:40:00,axn,27.61
2022-10-20T01:41:00,axn,27.47
2022-10-20T01:42:00,axn,27.47
2022-10-20T01:43:00,axn,27.33
2022-10-20T01:44:00,axn,27.60
2022-10-20T01:45:00,axn,27.34
2022-10-20T01:46:00,axn,27.31
2022-10-20T01:47:00,axn,26.66
2022-10-20T01:48:00,axn,26.56
2022-10-20T01:49:00,axn,26.76
2022-10-20T01:50:00,axn,26.78
2022-10-20T01:51:00,axn,26.77
2022-10-20T01:52:00,axn,26.77
2022-10-20T01:53:00,axn,26.72
2022-10-20T01:54:00,axn,26.73
2022-10-20T01:55:00,axn,27.07
2022-10-20T01:56:00,axn,26.72
2022-10-20T01:57:00,axn,26.83
2022-10-20T01:58:00,axn,26.83
2022-10-20T01:59:00,axn,27.25
2022-10-20T02:00:00,axn,26.83
2022-10-20T02:01:00,axn,26.89
2022-10-20T02:02:00,axn,27.50
2022-10-20T02:03:00,axn,26.99
2022-10-20T02:04:00,axn,27.05
2022-10-20T02:05:00,axn,26.86
2022-10-20T02:06:00,axn,29.63
2022-10-20T02:07:00,axn,34.94
2022-10-20T02:08:00,axn,35.14
2022-10-20T02:09:00,axn,35.27
2022-10-20T02:10:00,axn,34.99
2022-10-20T02:11:00,axn,35.60
2022-10-20T02:12:00,axn,34.90
2022-10-20T02:13:00,axn,35.39
2022-10-20T02:14:00,axn,34.86
2022-10-20T02:15:00,axn,34.96
2022-10-20T02:16:00,axn,34.92
2022-10-20T02:17:00,axn,35.16
2022-10-20T02:18:00,axn,35.39
2022-10-20T02:19:00,axn,35.05
2022-10-20T02:20:00,axn,35.50
2022-10-20T02:21:00,axn,34.97
2022-10-20T02:22:00,axn,36.80
2022-10-20T02:23:00,axn,35.11
2022-10-20T02:24:00,axn,34.87
2022-10-20T02:25:00,axn,34.88
2022-10-20T02:26:00,axn,35.25
2022-10-20T02:27:00,axn,34.90
2022-10-20T02:28:00,axn,35.07
2022-10-20T02:29:00,axn,35.02
2022-10-20T02:30:00,axn,34.88
2022-10-20T02:31:00,axn,34.98
2022-10-20T02:32:00,axn,34.92
2022-10-20T02:33:00,axn,35.15
2022-10-20T02:34:00,axn,34.84
2022-10-20T02:35:00,axn,34.95
2022-10-20T02:36:00,axn,34.77
2022-10-20T02:37:00,axn,34.66
2022-10-20T02:38:00,axn,34.81
2022-10-20T02:39:00,axn,26.37
2022-10-20T02:40:00,axn,26.36
2022-10-20T02:41:00,axn,26.47
2022-10-20T02:42:00,axn,26.39
2022-10-20T02:43:00,axn,26.32
2022-10-20T02:44:00,axn,26.25
2022-10-20T02:45:00,axn,26.24
2022-10-20T02:46:00,axn,26.09
2022-10-20T02:47:00,axn,26.17
2022-10-20T02:48:00,axn,26.48
2022-10-20T02:49:00,axn,26.51
2022-10-20T02:50:00,axn,26.48
2022-10-20T02:51:00,axn,26.57
2022-10-20T02:52:00,axn,26.61
2022-10-20T02:53:00,axn,26.53
2022-10-20T02:54:00,axn,26.62
2022-10-20T02:55:00,axn,26.95
2022-10-20T02:56:00,axn,26.78
2022-10-20T02:57:00,axn,26.73
2022-10-20T02:58:00,axn,26.85
2022-10-20T02:59:00,axn,26.90
2022-10-20T03:00:00,axn,26.93
2022-10-20T03:01:00,axn,26.95
2022-10-20T03:02:00,axn,26.89
2022-10-20T03:03:00,axn,26.96
2022-10-20T03:04:00,axn,35.55
2022-10-20T03:05:00,axn,35.51
2022-10-20T03:06:00,axn,35.35
2022-10-20T03:07:00,axn,35.18
2022-10-20T03:08:00,axn,35.32
2022-10-20T03:09:00,axn,35.30
2022-10-20T03:10:00,axn,35.21
2022-10-20T03:11:00,axn,35.25
2022-10-20T03:12:00,axn,35.19
2022-10-20T03:13:00,axn,35.95
2022-10-20T03:14:00,axn,35.54
2022-10-20T03:15:00,axn,35.13
2022-10-20T03:16:00,axn,35.15
2022-10-20T03:17:00,axn,35.23
2022-10-20T03:18:00,axn,35.21
2022-10-20T03:19:00,axn,35.27
2022-10-20T03:20:00,axn,35.49
2022-10-20T03:21:00,axn,35.01
2022-10-20T03:22:00,axn,35.05
2022-10-20T03:23:00,axn,35.19
2022-10-20T03:24:00,axn,35.04
2022-10-20T03:25:00,axn,35.09
2022-10-20T03:26:00,axn,35.08
2022-10-20T03:27:00,axn,35.11
2022-10-20T03:28:00,axn,35.03
2022-10-20T03:29:00,axn,35.12
2022-10-20T03:30:00,axn,35.50
2022-10-20T03:31:00,axn,35.04
2022-10-20T03:32:00,axn,34.56
2022-10-20T03:33:00,axn,34.65
2022-10-20T03:34:00,axn,34.60
2022-10-20T03:35:00,axn,34.64
2022-10-20T03:36:00,axn,34.70
2022-10-20T03:37:00,axn,34.79
2022-10-20T03:38:00,axn,34.92
2022-10-20T03:39:00,axn,34.81
2022-10-20T03:40:00,axn,34.63
2022-10-20T03:41:00,axn,34.64
2022-10-20T03:42:00,axn,34.52
2022-10-20T03:43:00,axn,34.50
2022-10-20T03:44:00,axn,34.66
2022-10-20T03:45:00,axn,27.19
2022-10-20T03:46:00,axn,26.49
2022-10-20T03:47:00,axn,26.59
2022-10-20T03:48:00,axn,26.20
2022-10-20T03:49:00,axn,26.07
2022-10-20T03:50:00,axn,26.20
2022-10-20T03:51:00,axn,26.20
2022-10-20T03:52:00,axn,26.14
2022-10-20T03:53:00,axn,26.36
2022-10-20T03:54:00,axn,26.50
2022-10-20T03:55:00,axn,26.51
2022-10-20T03:56:00,axn,26.38
2022-10-20T03:57:00,axn,26.69
2022-10-20T03:58:00,axn,26.20
2022-10-20T03:59:00,axn,26.25
2022-10-20T04:00:00,axn,26.10
2022-10-20T04:01:00,axn,26.37
2022-10-20T04:02:00,axn,26.48
2022-10-20T04:03:00,axn,26.51
2022-10-20T04:04:00,axn,26.54
2022-10-20T04:05:00,axn,26.37
2022-10-20T04:06:00,axn,26.30
2022-10-20T04:07:00,axn,26.22
2022-10-20T04:08:00,axn,26.26
2022-10-20T04:09:00,axn,26.05
2022-10-20T04:10:00,axn,26.09
2022-10-20T04:11:00,axn,25.99
2022-10-20T04:12:00,axn,25.83
2022-10-20T04:13:00,axn,25.76
2022-10-20T04:14:00,axn,26.21
2022-10-20T04:15:00,axn,26.15
2022-10-20T04:16:00,axn,26.04
2022-10-20T04:17:00,axn,26.25
2022-10-20T04:18:00,axn,26.27
2022-10-20T04:19:00,axn,26.28
2022-10-20T04:20:00,axn,26.85
2022-10-20T04:21:00,axn,26.70
2022-10-20T04:22:00,axn,26.78
2022-10-20T04:23:00,axn,26.78
2022-10-20T04:24:00,axn,26.53
2022-10-20T04:25:00,axn,26.49
2022-10-20T04:26:00,axn,26.82
2022-10-20T04:27:00,axn,26.49
2022-10-20T04:28:00,axn,26.47
2022-10-20T04:29:00,axn,26.52
2022-10-20T04:30:00,axn,26.51
2022-10-20T04:31:00,axn,26.51
2022-10-20T04:32:00,axn,29.33
2022-10-20T04:33:00,axn,29.40
2022-10-20T04:34:00,axn,29.28
2022-10-20T04:35:00,axn,26.48
2022-10-20T04:36:00,axn,26.44
2022-10-20T04:37:00,axn,26.49
2022-10-20T04:38:00,axn,29.35
2022-10-20T04:39:00,axn,32.32
2022-10-20T04:40:00,axn,32.47
2022-10-20T04:41:00,axn,32.41
2022-10-20T04:42:00,axn,26.97
2022-10-20T04:43:00,axn,26.95
2022-10-20T04:44:00,axn,27.03
2022-10-20T04:45:00,axn,26.98
2022-10-20T04:46:00,axn,26.80
2022-10-20T04:47:00,axn,26.79
2022-10-20T04:48:00,axn,27.05
2022-10-20T04:49:00,axn,37.53
2022-10-20T04:50:00,axn,37.88
2022-10-20T04:51:00,axn,37.14
2022-10-20T04:52:00,axn,37.48
2022-10-20T04:53:00,axn,26.68
2022-10-20T04:54:00,axn,26.64
2022-10-20T04:55:00,axn,26.84
2022-10-20T04:56:00,axn,26.55
2022-10-20T04:57:00,axn,26.73
2022-10-20T04:58:00,axn,26.73
2022-10-20T04:59:00,axn,27.02
2022-10-20T05:00:00,axn,26.64
2022-10-20T05:01:00,axn,25.19
2022-10-20T05:02:00,axn,24.89
2022-10-20T05:03:00,axn,25.12
2022-10-20T05:04:00,axn,25.14
2022-10-20T05:05:00,axn,25.45
2022-10-20T05:06:00,axn,25.08
2022-10-20T05:07:00,axn,25.10
2022-10-20T05:08:00,axn,25.34
2022-10-20T05:09:00,axn,25.61
2022-10-20T05:10:00,axn,25.50
2022-10-20T05:11:00,axn,25.21
2022-10-20T05:12:00,axn,25.13
2022-10-20T05:13:00,axn,36.94
2022-10-20T05:14:00,axn,25.14
2022-10-20T05:15:00,axn,25.23
2022-10-20T05:16:00,axn,25.16
2022-10-20T05:17:00,axn,25.36
2022-10-20T05:18:00,axn,25.28
2022-10-20T05:19:00,axn,25.27
2022-10-20T05:20:00,axn,25.38
2022-10-20T05:21:00,axn,25.13
2022-10-20T05:22:00,axn,24.58
2022-10-20T05:23:00,axn,24.66
2022-10-20T05:24:00,axn,24.83
2022-10-20T05:25:00,axn,24.50
2022-10-20T05:26:00,axn,24.53
2022-10-20T05:27:00,axn,24.49
2022-10-20T05:28:00,axn,24.49
2022-10-20T05:29:00,axn,24.77
2022-10-20T05:30:00,axn,25.02
2022-10-20T05:31:00,axn,24.57
2022-10-20T05:32:00,axn,24.71
2022-10-20T05:33:00,axn,24.77
2022-10-20T05:34:00,axn,24.71
2022-10-20T05:35:00,axn,24.74
2022-10-20T05:36:00,axn,24.83
2022-10-20T05:37:00,axn,24.69
2022-10-20T05:38:00,axn,24.57
2022-10-20T05:39:00,axn,24.58
2022-10-20T05:40:00,axn,25.02
2022-10-20T05:41:00,axn,25.26
2022-10-20T05:42:00,axn,25.33
2022-10-20T05:43:00,axn,25.64
2022-10-20T05:44:00,axn,25.53
2022-10-20T05:45:00,axn,25.52
2022-10-20T05:46:00,axn,25.24
2022-10-20T05:47:00,axn,24.80
2022-10-20T05:48:00,axn,24.79
2022-10-20T05:49:00,axn,25.00
2022-10-20T05:50:00,axn,25.05
2022-10-20T05:51:00,axn,25.02
2022-10-20T05:52:00,axn,25.09
2022-10-20T05:53:00,axn,24.93
2022-10-20T05:54:00,axn,24.84
2022-10-20T05:55:00,axn,25.42
2022-10-20T05:56:00,axn,25.84
2022-10-20T05:57:00,axn,25.50
2022-10-20T05:58:00,axn,25.42
2022-10-20T05:59:00,axn,25.23
2022-10-20T06:00:00,axn,25.51
2022-10-20T06:01:00,axn,26.26
2022-10-20T06:02:00,axn,25.60
2022-10-20T06:03:00,axn,25.44
2022-10-20T06:04:00,axn,30.44
2022-10-20T06:05:00,axn,25.52
2022-10-20T06:06:00,axn,25.22
2022-10-20T06:07:00,axn,25.01
2022-10-20T06:08:00,axn,25.45
2022-10-20T06:09:00,axn,25.21
2022-10-20T06:10:00,axn,25.08
2022-10-20T06:11:00,axn,25.15
2022-10-20T06:12:00,axn,25.23
2022-10-20T06:13:00,axn,25.13
2022-10-20T06:14:00,axn,24.96
2022-10-20T06:15:00,axn,25.28
2022-10-20T06:16:00,axn,24.91
2022-10-20T06:17:00,axn,24.94
2022-10-20T06:18:00,axn,24.84
2022-10-20T06:19:00,axn,24.95
2022-10-20T06:20:00,axn,24.96
2022-10-20T06:21:00,axn,24.75
2022-10-20T06:22:00,axn,24.73
2022-10-20T06:23:00,axn,24.55
2022-10-20T06:24:00,axn,24.65
2022-10-20T06:25:00,axn,24.70
2022-10-20T06:26:00,axn,24.34
2022-10-20T06:27:00,axn,24.34
2022-10-20T06:28:00,axn,24.56
2022-10-20T06:29:00,axn,24.40
2022-10-20T06:30:00,axn,24.39
2022-10-20T06:31:00,axn,24.11
2022-10-20T06:32:00,axn,24.03
2022-10-20T06:33:00,axn,24.01
2022-10-20T06:34:00,axn,24.04
2022-10-20T06:35:00,axn,24.20
2022-10-20T06:36:00,axn,24.61
2022-10-20T06:37:00,axn,24.20
2022-10-20T06:38:00,axn,24.29
2022-10-20T06:39:00,axn,39.07
2022-10-20T06:40:00,axn,39.00
2022-10-20T06:41:00,axn,39.08
2022-10-20T06:42:00,axn,38.41
2022-10-20T06:43:00,axn,38.50
2022-10-20T06:44:00,axn,24.48
2022-10-20T06:45:00,axn,24.37
2022-10-20T06:46:00,axn,24.36
2022-10-20T06:47:00,axn,24.28
2022-10-20T06:48:00,axn,24.59
2022-10-20T06:49:00,axn,24.79
2022-10-20T06:50:00,axn,24.86
2022-10-20T06:51:00,axn,24.75
2022-10-20T06:52:00,axn,24.80
2022-10-20T06:53:00,axn,24.66
2022-10-20T06:54:00,axn,24.69
2022-10-20T06:55:00,axn,24.98
2022-10-20T06:56:00,axn,24.45
2022-10-20T06:57:00,axn,24.86
2022-10-20T06:58:00,axn,24.97
2022-10-20T06:59:00,axn,24.87
2022-10-20T07:00:00,axn,25.44
2022-10-20T07:01:00,axn,28.89
2022-10-20T07:02:00,axn,33.12
2022-10-20T07:03:00,axn,32.39
2022-10-20T07:04:00,axn,32.59
2022-10-20T07:05:00,axn,32.65
2022-10-20T07:06:00,axn,35.46
2022-10-20T07:07:00,axn,32.70
2022-10-20T07:08:00,axn,32.96
2022-10-20T07:09:00,axn,32.73
2022-10-20T07:10:00,axn,32.18
2022-10-20T07:11:00,axn,32.41
2022-10-20T07:12:00,axn,32.64
2022-10-20T07:13:00,axn,33.46
2022-10-20T07:14:00,axn,32.64
2022-10-20T07:15:00,axn,32.53
2022-10-20T07:16:00,axn,32.18
2022-10-20T07:17:00,axn,32.62
2022-10-20T07:18:00,axn,32.27
2022-10-20T07:19:00,axn,32.75
2022-10-20T07:20:00,axn,32.64
2022-10-20T07:21:00,axn,32.58
2022-10-20T07:22:00,axn,32.43
2022-10-20T07:23:00,axn,32.26
2022-10-20T07:24:00,axn,32.44
2022-10-20T07:25:00,axn,32.85
2022-10-20T07:26:00,axn,32.75
2022-10-20T07:27:00,axn,32.50
2022-10-20T07:28:00,axn,32.66
2022-10-20T07:29:00,axn,32.66
2022-10-20T07:30:00,axn,32.83
2022-10-20T07:31:00,axn,32.66
2022-10-20T07:32:00,axn,33.10
2022-10-20T07:33:00,axn,34.29
2022-10-20T07:34:00,axn,34.22
2022-10-20T07:35:00,axn,33.50
2022-10-20T07:36:00,axn,33.54
2022-10-20T07:37:00,axn,32.55
2022-10-20T07:38:00,axn,32.77
2022-10-20T07:39:00,axn,33.31
2022-10-20T07:40:00,axn,32.99
2022-10-20T07:41:00,axn,33.02
2022-10-20T07:42:00,axn,33.22
2022-10-20T07:43:00,axn,33.36
2022-10-20T07:44:00,axn,32.95
2022-10-20T07:45:00,axn,32.99
2022-10-20T07:46:00,axn,34.97
2022-10-20T07:47:00,axn,33.86
2022-10-20T07:48:00,axn,33.44
2022-10-20T07:49:00,axn,33.39
2022-10-20T07:50:00,axn,33.49
2022-10-20T07:51:00,axn,34.18
2022-10-20T07:52:00,axn,36.59
2022-10-20T07:53:00,axn,36.59
2022-10-20T07:54:00,axn,36.88
2022-10-20T07:55:00,axn,34.41
2022-10-20T07:56:00,axn,34.22
2022-10-20T07:57:00,axn,34.37
2022-10-20T07:58:00,axn,34.16
2022-10-20T07:59:00,axn,34.76
2022-10-20T08:00:00,axn,34.43
2022-10-20T08:01:00,axn,35.09
2022-10-20T08:02:00,axn,38.03
2022-10-20T08:03:00,axn,38.35
2022-10-20T08:04:00,axn,38.51
2022-10-20T08:05:00,axn,38.61
2022-10-20T08:06:00,axn,39.36
2022-10-20T08:07:00,axn,39.71
2022-10-20T08:08:00,axn,39.29
2022-10-20T08:09:00,axn,38.91
2022-10-20T08:10:00,axn,38.73
2022-10-20T08:11:00,axn,39.24
2022-10-20T08:12:00,axn,39.50
2022-10-20T08:13:00,axn,39.77
2022-10-20T08:14:00,axn,39.06
2022-10-20T08:15:00,axn,39.13
2022-10-20T08:16:00,axn,39.25
2022-10-20T08:17:00,axn,39.81
2022-10-20T08:18:00,axn,39.41
2022-10-20T08:19:00,axn,39.24
2022-10-20T08:20:00,axn,39.62
2022-10-20T08:21:00,axn,39.33
2022-10-20T08:22:00,axn,39.55
2022-10-20T08:23:00,axn,39.30
2022-10-20T08:24:00,axn,39.86
2022-10-20T08:25:00,axn,39.80
2022-10-20T08:26:00,axn,39.40
2022-10-20T08:27:00,axn,39.84
2022-10-20T08:28:00,axn,39.83
2022-10-20T08:29:00,axn,39.52
2022-10-20T08:30:00,axn,51.27
2022-10-20T08:31:00,axn,39.94
2022-10-20T08:32:00,axn,39.51
2022-10-20T08:33:00,axn,39.79
2022-10-20T08:34:00,axn,39.54
2022-10-20T08:35:00,axn,48.26
2022-10-20T08:36:00,axn,48.18
2022-10-20T08:37:00,axn,48.52
2022-10-20T08:38:00,axn,52.03
2022-10-20T08:39:00,axn,51.85
2022-10-20T08:40:00,axn,51.97
2022-10-20T08:41:00,axn,47.66
2022-10-20T08:42:00,axn,48.30
2022-10-20T08:43:00,axn,48.27
2022-10-20T08:44:00,axn,48.37
2022-10-20T08:45:00,axn,58.14
2022-10-20T08:46:00,axn,59.03
2022-10-20T08:47:00,axn,59.14
2022-10-20T08:48:00,axn,49.40
2022-10-20T08:49:00,axn,59.55
2022-10-20T08:50:00,axn,59.43
2022-10-20T08:51:00,axn,49.50
2022-10-20T08:52:00,axn,49.16
2022-10-20T08:53:00,axn,49.67
2022-10-20T08:54:00,axn,49.31
2022-10-20T08:55:00,axn,49.43
2022-10-20T08:56:00,axn,49.34
2022-10-20T08:57:00,axn,49.49
2022-10-20T08:58:00,axn,49.44
2022-10-20T08:59:00,axn,49.90
2022-10-20T09:00:00,axn,50.73
2022-10-20T09:01:00,axn,50.97
2022-10-20T09:02:00,axn,51.60
2022-10-20T09:03:00,axn,50.50
2022-10-20T09:04:00,axn,49.77
2022-10-20T09:05:00,axn,41.86
2022-10-20T09:06:00,axn,44.33
2022-10-20T09:07:00,axn,44.47
2022-10-20T09:08:00,axn,44.52
2022-10-20T09:09:00,axn,45.36
2022-10-20T09:10:00,axn,44.68
2022-10-20T09:11:00,axn,47.85
2022-10-20T09:12:00,axn,66.04
2022-10-20T09:13:00,axn,45.40
2022-10-20T09:14:00,axn,44.63
2022-10-20T09:15:00,axn,44.95
2022-10-20T09:16:00,axn,44.58
2022-10-20T09:17:00,axn,44.97
2022-10-20T09:18:00,axn,45.16
2022-10-20T09:19:00,axn,46.36
2022-10-20T09:20:00,axn,45.50
2022-10-20T09:21:00,axn,45.32
2022-10-20T09:22:00,axn,45.75
2022-10-20T09:23:00,axn,45.63
2022-10-20T09:24:00,axn,45.63
2022-10-20T09:25:00,axn,45.15
2022-10-20T09:26:00,axn,45.48
2022-10-20T09:27:00,axn,45.96
2022-10-20T09:28:00,axn,46.40
2022-10-20T09:29:00,axn,46.66
2022-10-20T09:30:00,axn,46.45
2022-10-20T09:31:00,axn,46.64
2022-10-20T09:32:00,axn,47.47
2022-10-20T09:33:00,axn,46.64
2022-10-20T09:34:00,axn,48.12
2022-10-20T09:35:00,axn,47.91
2022-10-20T09:36:00,axn,53.12
2022-10-20T09:37:00,axn,47.72
2022-10-20T09:38:00,axn,48.17
2022-10-20T09:39:00,axn,48.20
2022-10-20T09:40:00,axn,48.36
2022-10-20T09:41:00,axn,52.49
2022-10-20T09:42:00,axn,62.52
2022-10-20T09:43:00,axn,61.66
2022-10-20T09:44:00,axn,61.76
2022-10-20T09:45:00,axn,61.75
2022-10-20T09:46:00,axn,61.44
2022-10-20T09:47:00,axn,61.40
2022-10-20T09:48:00,axn,47.81
2022-10-20T09:49:00,axn,47.52
2022-10-20T09:50:00,axn,48.17
2022-10-20T09:51:00,axn,50.60
2022-10-20T09:52:00,axn,50.70
2022-10-20T09:53:00,axn,50.82
2022-10-20T09:54:00,axn,47.70
2022-10-20T09:55:00,axn,47.75
2022-10-20T09:56:00,axn,47.46
2022-10-20T09:57:00,axn,47.82
2022-10-20T09:58:00,axn,47.82
2022-10-20T09:59:00,axn,47.34
2022-10-20T10:00:00,axn,47.45
2022-10-20T10:01:00,axn,47.34
2022-10-20T10:02:00,axn,47.66
2022-10-20T10:03:00,axn,47.42
2022-10-20T10:04:00,axn,47.64
2022-10-20T10:05:00,axn,47.26
2022-10-20T10:06:00,axn,47.31
2022-10-20T10:07:00,axn,47.36
2022-10-20T10:08:00,axn,47.16
2022-10-20T10:09:00,axn,46.72
2022-10-20T10:10:00,axn,46.81
2022-10-20T10:11:00,axn,46.56
2022-10-20T10:12:00,axn,46.76
2022-10-20T10:13:00,axn,48.45
2022-10-20T10:14:00,axn,47.48
2022-10-20T10:15:00,axn,46.59
2022-10-20T10:16:00,axn,46.95
2022-10-20T10:17:00,axn,46.80
2022-10-20T10:18:00,axn,46.54
2022-10-20T10:19:00,axn,46.67
2022-10-20T10:20:00,axn,46.65
2022-10-20T10:21:00,axn,46.73
2022-10-20T10:22:00,axn,46.89
2022-10-20T10:23:00,axn,46.86
2022-10-20T10:24:00,axn,47.27
2022-10-20T10:25:00,axn,47.20
2022-10-20T10:26:00,axn,47.48
2022-10-20T10:27:00,axn,47.54
2022-10-20T10:28:00,axn,47.87
2022-10-20T10:29:00,axn,47.89
2022-10-20T10:30:00,axn,51.13
2022-10-20T10:31:00,axn,50.58
2022-10-20T10:32:00,axn,47.19
2022-10-20T10:33:00,axn,50.19
2022-10-20T10:34:00,axn,51.55
2022-10-20T10:35:00,axn,49.95
2022-10-20T10:36:00,axn,47.32
2022-10-20T10:37:00,axn,47.93
2022-10-20T10:38:00,axn,47.67
2022-10-20T10:39:00,axn,47.80
2022-10-20T10:40:00,axn,47.62
2022-10-20T10:41:00,axn,47.85
2022-10-20T10:42:00,axn,48.39
2022-10-20T10:43:00,axn,47.70
2022-10-20T10:44:00,axn,46.96
2022-10-20T10:45:00,axn,46.83
2022-10-20T10:46:00,axn,47.74
2022-10-20T10:47:00,axn,47.41
2022-10-20T10:48:00,axn,47.36
2022-10-20T10:49:00,axn,47.33
2022-10-20T10:50:00,axn,47.66
2022-10-20T10:51:00,axn,47.78
2022-10-20T10:52:00,axn,47.87
2022-10-20T10:53:00,axn,47.71
2022-10-20T10:54:00,axn,48.45
2022-10-20T10:55:00,axn,48.08
2022-10-20T10:56:00,axn,47.66
2022-10-20T10:57:00,axn,47.09
2022-10-20T10:58:00,axn,47.16
2022-10-20T10:59:00,axn,47.64
2022-10-20T11:00:00,axn,47.32
2022-10-20T11:01:00,axn,50.70
2022-10-20T11:02:00,axn,50.33
2022-10-20T11:03:00,axn,50.67
2022-10-20T11:04:00,axn,50.99
2022-10-20T11:05:00,axn,47.56
2022-10-20T11:06:00,axn,46.18
2022-10-20T11:07:00,axn,47.85
2022-10-20T11:08:00,axn,47.19
2022-10-20T11:09:00,axn,48.51
2022-10-20T11:10:00,axn,47.09
2022-10-20T11:11:00,axn,45.88
2022-10-20T11:12:00,axn,45.28
2022-10-20T11:13:00,axn,46.64
2022-10-20T11:14:00,axn,47.07
2022-10-20T11:15:00,axn,46.86
2022-10-20T11:16:00,axn,46.68
2022-10-20T11:17:00,axn,46.69
2022-10-20T11:18:00,axn,47.02
2022-10-20T11:19:00,axn,46.48
2022-10-20T11:20:00,axn,47.02
2022-10-20T11:21:00,axn,47.80
2022-10-20T11:22:00,axn,49.86
2022-10-20T11:23:00,axn,47.36
2022-10-20T11:24:00,axn,47.63
2022-10-20T11:25:00,axn,47.98
2022-10-20T11:26:00,axn,48.02
2022-10-20T11:27:00,axn,47.87
2022-10-20T11:28:00,axn,47.47
2022-10-20T11:29:00,axn,48.72
2022-10-20T11:30:00,axn,48.24
2022-10-20T11:31:00,axn,46.09
2022-10-20T11:32:00,axn,44.79
2022-10-20T11:33:00,axn,46.12
2022-10-20T11:34:00,axn,44.30
2022-10-20T11:35:00,axn,48.25
2022-10-20T11:36:00,axn,47.96
2022-10-20T11:37:00,axn,47.86
2022-10-20T11:38:00,axn,46.87
2022-10-20T11:39:00,axn,46.85
2022-10-20T11:40:00,axn,48.00
2022-10-20T11:41:00,axn,48.23
2022-10-20T11:42:00,axn,46.64
2022-10-20T11:43:00,axn,46.98
2022-10-20T11:44:00,axn,46.79
2022-10-20T11:45:00,axn,47.27
2022-10-20T11:46:00,axn,47.16
2022-10-20T11:47:00,axn,47.76
2022-10-20T11:48:00,axn,47.49
2022-10-20T11:49:00,axn,49.26
2022-10-20T11:50:00,axn,49.42
2022-10-20T11:51:00,axn,48.47
2022-10-20T11:52:00,axn,48.56
2022-10-20T11:53:00,axn,48.52
2022-10-20T11:54:00,axn,48.42
2022-10-20T11:55:00,axn,48.29
2022-10-20T11:56:00,axn,48.31
2022-10-20T11:57:00,axn,48.31
2022-10-20T11:58:00,axn,48.34
2022-10-20T11:59:00,axn,49.09
2022-10-20T12:00:00,axn,48.42
2022-10-20T12:01:00,axn,48.48
2022-10-20T12:02:00,axn,48.19
2022-10-20T12:03:00,axn,58.82
2022-10-20T12:04:00,axn,51.16
2022-10-20T12:05:00,axn,60.75
2022-10-20T12:06:00,axn,60.64
2022-10-20T12:07:00,axn,57.72
2022-10-20T12:08:00,axn,57.23
2022-10-20T12:09:00,axn,57.17
2022-10-20T12:10:00,axn,47.27
2022-10-20T12:11:00,axn,47.83
2022-10-20T12:12:00,axn,47.68
2022-10-20T12:13:00,axn,47.69
2022-10-20T12:14:00,axn,46.40
2022-10-20T12:15:00,axn,45.87
2022-10-20T12:16:00,axn,45.71
2022-10-20T12:17:00,axn,45.90
2022-10-20T12:18:00,axn,46.69
2022-10-20T12:19:00,axn,46.02
2022-10-20T12:20:00,axn,45.03
2022-10-20T12:21:00,axn,46.05
2022-10-20T12:22:00,axn,47.96
2022-10-20T12:23:00,axn,45.32
2022-10-20T12:24:00,axn,45.60
2022-10-20T12:25:00,axn,46.41
2022-10-20T12:26:00,axn,45.40
2022-10-20T12:27:00,axn,44.47
2022-10-20T12:28:00,axn,47.47
2022-10-20T12:29:00,axn,44.49
2022-10-20T12:30:00,axn,44.24
2022-10-20T12:31:00,axn,46.30
2022-10-20T12:32:00,axn,44.48
2022-10-20T12:33:00,axn,44.62
2022-10-20T12:34:00,axn,44.39
2022-10-20T12:35:00,axn,44.75
2022-10-20T12:36:00,axn,43.95
2022-10-20T12:37:00,axn,44.64
2022-10-20T12:38:00,axn,44.66
2022-10-20T12:39:00,axn,44.65
2022-10-20T12:40:00,axn,44.76
2022-10-20T12:41:00,axn,44.28
2022-10-20T12:42:00,axn,44.30
2022-10-20T12:43:00,axn,44.43
2022-10-20T12:44:00,axn,43.53
2022-10-20T12:45:00,axn,44.72
2022-10-20T12:46:00,axn,44.37
2022-10-20T12:47:00,axn,44.71
2022-10-20T12:48:00,axn,45.26
2022-10-20T12:49:00,axn,47.95
2022-10-20T12:50:00,axn,45.14
2022-10-20T12:51:00,axn,44.12
2022-10-20T12:52:00,axn,43.58
2022-10-20T12:53:00,axn,42.84
2022-10-20T12:54:00,axn,43.12
2022-10-20T12:55:00,axn,42.80
2022-10-20T12:56:00,axn,42.32
2022-10-20T12:57:00,axn,42.71
2022-10-20T12:58:00,axn,48.72
2022-10-20T12:59:00,axn,51.19
2022-10-20T13:00:00,axn,51.65
2022-10-20T13:01:00,axn,45.04
2022-10-20T13:02:00,axn,45.81
2022-10-20T13:03:00,axn,42.98
2022-10-20T13:04:00,axn,42.46
2022-10-20T13:05:00,axn,41.54
2022-10-20T13:06:00,axn,41.19
2022-10-20T13:07:00,axn,41.51
2022-10-20T13:08:00,axn,41.40
2022-10-20T13:09:00,axn,41.95
2022-10-20T13:10:00,axn,41.81
2022-10-20T13:11:00,axn,42.01
2022-10-20T13:12:00,axn,41.80
2022-10-20T13:13:00,axn,42.12
2022-10-20T13:14:00,axn,41.52
2022-10-20T13:15:00,axn,42.31
2022-10-20T13:16:00,axn,41.59
2022-10-20T13:17:00,axn,40.92
2022-10-20T13:18:00,axn,40.81